Location: Hobi?a Gr?di?te
(45.4833°N, 22.7833°E)
Time: 10:54:47
(UTC+00:00)

Cosmos 1763 Rocket - Pass Details

Date: 28 January 2023
Orbit: 733 x 778 km, 74.0° (Epoch: 01 April)

Event Time Altitude Azimuth Distance (km) Brightness Sun altitude
Rises 17:18:28 0° 343° (NNW) 3,238 6.9 -19.1°
Reaches altitude 10° 17:20:58 10° 349° (N) 2,300 6.0 -19.6°
Maximum altitude 17:25:59 46° 63° (ENE) 1,007 3.7 -20.5°
Enters shadow 17:26:32 44° 82° (E) 1,031 3.7 -20.6°
